Weather History for Cedar City, UT

Change the Weather History Date:

Monday, May 19, 2014

  Actual Average Record
Temperature  
Mean Temperature 62 °F 57 °F  
Max Temperature 76 °F 73 °F 90 °F (2008)
Min Temperature 48 °F 40 °F 25 °F (1960)
Degree Days  
Heating Degree Days 3 8  
Month to date heating degree days 205 210  
Since 1 July heating degree days 6026 6096  
Cooling Degree Days 0 0  
Month to date cooling degree days 7 0  
Year to date cooling degree days 7 0  
Growing Degree Days 14 (Base 50)    
Moisture  
Dew Point 19 °F    
Average Humidity 20    
Maximum Humidity 30    
Minimum Humidity 10    
Precipitation  
Precipitation 0.00 in 0.03 in 0.60 in (2011)
Month to date precipitation 1.38 0.46  
Year to date precipitation 3.43 4.73  
Sea Level Pressure  
Sea Level Pressure 29.65 in    
Wind  
Wind Speed 10 mph (SSW)    
Max Wind Speed 25 mph    
Max Gust Speed 33 mph    
Visibility 10 miles    
Events      
T = Trace of Precipitation, MM = Missing Value Source: NWS Daily Summary

Daily Weather History Graph

Daily Weather History Graph

Search for Another Location

Airport:

Trip Planner

Search our weather history database for the weather conditions in past years. The results will help you decide how hot, cold, wet, or windy it might be!

Date:

Astronomy

May. 19, 2014 Rise Set
Actual Time 6:19 AM MDT 8:38 PM MDT
Civil Twilight 5:49 AM MDT 9:08 PM MDT
Nautical Twilight 5:13 AM MDT 9:45 PM MDT
Astronomical Twilight 4:33 AM MDT 10:25 PM MDT
Moon 12:30 AM MDT (5/19) 11:19 AM MDT (5/19)
Length of Visible Light 15h 18m
Length of Day
14h 19m
Waning Gibbous, 70% of the Moon is Illuminated
May 19
Waning Gibbous
May 21
Last Quarter
May 28
New
Jun 5
First Quarter
Jun 12
Full

Hourly Weather History & Observations

Time (MDT) Temp. Dew Point Humidity Pressure Visibility Wind Dir Wind Speed Gust Speed Precip Events Conditions
12:53 AM 57.0 °F 19.0 °F 23% 29.60 in 10.0 mi South 8.1 mph - N/A   Clear
1:53 AM 57.9 °F 19.0 °F 22% 29.58 in 10.0 mi South 10.4 mph - N/A   Clear
2:53 AM 57.0 °F 21.0 °F 25% 29.56 in 10.0 mi Variable 5.8 mph - N/A   Clear
3:53 AM 55.0 °F 21.9 °F 28% 29.59 in 10.0 mi SW 10.4 mph - N/A   Clear
4:53 AM 54.0 °F 21.9 °F 29% 29.61 in 10.0 mi SW 10.4 mph - N/A   Clear
5:53 AM 53.1 °F 21.0 °F 29% 29.62 in 10.0 mi SW 9.2 mph - N/A   Clear
8:53 AM 59.0 °F 19.0 °F 21% 29.71 in 10.0 mi NNE 6.9 mph - N/A   Clear
9:53 AM 62.1 °F 21.0 °F 21% 29.73 in 10.0 mi WNW 4.6 mph - N/A   Clear
10:53 AM 66.0 °F 21.0 °F 18% 29.71 in 10.0 mi Variable 5.8 mph - N/A   Clear
12:53 PM 71.1 °F 19.0 °F 14% 29.68 in 10.0 mi SSW 9.2 mph - N/A   Clear
1:53 PM 73.9 °F 16.0 °F 11% 29.67 in 10.0 mi SW 12.7 mph 25.3 mph N/A   Clear
2:53 PM 73.9 °F 15.1 °F 11% 29.66 in 10.0 mi SSW 18.4 mph 26.5 mph N/A   Clear
3:53 PM 75.0 °F 16.0 °F 11% 29.65 in 10.0 mi South 15.0 mph 25.3 mph N/A   Clear
4:53 PM 73.9 °F 16.0 °F 11% 29.64 in 10.0 mi SSW 20.7 mph 29.9 mph N/A   Clear
5:53 PM 72.0 °F 17.1 °F 12% 29.66 in 10.0 mi SSW 23.0 mph 31.1 mph N/A   Clear
6:53 PM 71.1 °F 17.1 °F 13% 29.66 in 10.0 mi SSW 21.9 mph 32.2 mph N/A   Clear
7:53 PM 68.0 °F 17.1 °F 14% 29.66 in 10.0 mi SW 17.3 mph 25.3 mph N/A   Clear
8:53 PM 64.0 °F 18.0 °F 17% 29.67 in 10.0 mi South 10.4 mph - N/A   Clear
9:53 PM 55.0 °F 19.9 °F 25% 29.70 in 10.0 mi SSW 9.2 mph - N/A   Clear
10:53 PM 57.9 °F 16.0 °F 19% 29.70 in 10.0 mi South 10.4 mph - N/A   Clear
11:53 PM 57.0 °F 17.1 °F 21% 29.69 in 10.0 mi South 10.4 mph - N/A   Clear